Location: Guayaquil
(2.1667°S, 79.9000°W)
Time: 22:05:01
(UTC-05:00)

DNEPR OBJECT AB - Pass Details

Date: 25 March 2018
Orbit: 587 x 704 km, 97.6° (Epoch: 15 July)

Event Time Altitude Azimuth Distance (km) Brightness Sun altitude
Rises 19:56:25 0° 202° (SSW) 3,055 ? -22.8°
Reaches altitude 10° 19:59:50 10° 229° (SW) 2,113 ? -23.7°
Maximum altitude 20:02:00 13° 257° (WSW) 1,885 ? -24.2°
Drops below altitude 10° 20:04:08 10° 285° (WNW) 2,076 ? -24.7°
Sets 20:07:27 0° 312° (NW) 2,955 ? -25.6°
